EN

Hourly Weather Oleksiivka

Today, 18 May, Tuesday

Time Temperature Precipitation Wind Pressure Humidity
00:00 +13°C° 0 mm 1 mps 725 mmHg 90%
01:00 +13°C° 0 mm 1 mps 725 mmHg 91%
02:00 +12°C° 0 mm 1 mps 725 mmHg 91%
03:00 +12°C° 0 mm 1 mps 725 mmHg 91%
04:00 +12°C° 0 mm 1 mps 724 mmHg 91%
05:00 +12°C° 0 mm 1 mps 724 mmHg 92%
06:00 +13°C° 0 mm 1 mps 724 mmHg 87%
07:00 +15°C° 0 mm 1 mps 724 mmHg 83%
08:00 +16°C° 0 mm 1 mps 724 mmHg 78%
09:00 +18°C° 0.3 mm 1 mps 724 mmHg 72%
10:00 +19°C° 0.3 mm 1 mps 724 mmHg 66%
11:00 +19°C° 0.3 mm 2 mps 724 mmHg 60%
12:00 +19°C° 0.9 mm 2 mps 724 mmHg 63%
13:00 +19°C° 0.9 mm 2 mps 724 mmHg 66%
14:00 +18°C° 0.9 mm 3 mps 724 mmHg 69%
15:00 +18°C° 0.5 mm 3 mps 724 mmHg 72%
16:00 +18°C° 0.5 mm 3 mps 723 mmHg 74%
17:00 +18°C° 0.5 mm 3 mps 723 mmHg 77%
18:00 +17°C° 1.3 mm 4 mps 723 mmHg 81%
19:00 +14°C° 1.3 mm 4 mps 723 mmHg 85%
20:00 +13°C° 1.3 mm 5 mps 724 mmHg 89%
21:00 +13°C° 0.6 mm 5 mps 724 mmHg 90%
22:00 +11°C° 0.6 mm 6 mps 724 mmHg 91%
23:00 +11°C° 0.6 mm 6 mps 725 mmHg 92%

Tomorrow, 19 May, Wednesday

Time Temperature Precipitation Wind Pressure Humidity
00:00 +11°C° 0.1 mm 6 mps 725 mmHg 93%
01:00 +10°C° 0.1 mm 7 mps 725 mmHg 93%
02:00 +10°C° 0.1 mm 7 mps 725 mmHg 93%
03:00 +10°C° 0.4 mm 7 mps 726 mmHg 94%
04:00 +10°C° 0.4 mm 7 mps 726 mmHg 94%
05:00 +9°C° 0.4 mm 7 mps 726 mmHg 94%
06:00 +9°C° 0.1 mm 7 mps 727 mmHg 93%
07:00 +9°C° 0.1 mm 7 mps 727 mmHg 92%
08:00 +9°C° 0.1 mm 7 mps 728 mmHg 91%
09:00 +10°C° 0 mm 7 mps 728 mmHg 90%
10:00 +10°C° 0 mm 7 mps 729 mmHg 89%
11:00 +11°C° 0 mm 7 mps 729 mmHg 88%
12:00 +11°C° 0 mm 7 mps 729 mmHg 85%
13:00 +13°C° 0 mm 6 mps 730 mmHg 82%
14:00 +13°C° 0 mm 6 mps 730 mmHg 80%
15:00 +14°C° 0.1 mm 6 mps 730 mmHg 77%
16:00 +14°C° 0.1 mm 5 mps 730 mmHg 74%
17:00 +15°C° 0.1 mm 5 mps 730 mmHg 72%
18:00 +13°C° 0.1 mm 4 mps 730 mmHg 78%
19:00 +12°C° 0.1 mm 3 mps 730 mmHg 84%
20:00 +11°C° 0.1 mm 3 mps 731 mmHg 90%
21:00 +10°C° 0 mm 3 mps 731 mmHg 91%
22:00 +9°C° 0 mm 3 mps 731 mmHg 92%
23:00 +9°C° 0 mm 2 mps 730 mmHg 94%

Day after tomorrow, 20 May, Thursday

Time Temperature Precipitation Wind Pressure Humidity
00:00 +8°C° 0 mm 2 mps 730 mmHg 94%
01:00 +8°C° 0 mm 2 mps 730 mmHg 95%
02:00 +8°C° 0 mm 2 mps 730 mmHg 95%
03:00 +7°C° 0 mm 2 mps 730 mmHg 95%
04:00 +7°C° 0 mm 2 mps 730 mmHg 96%
05:00 +7°C° 0 mm 2 mps 730 mmHg 96%
06:00 +9°C° 0 mm 2 mps 730 mmHg 91%
07:00 +12°C° 0 mm 2 mps 730 mmHg 87%
08:00 +13°C° 0 mm 2 mps 730 mmHg 82%
09:00 +14°C° 0.3 mm 2 mps 730 mmHg 77%
10:00 +15°C° 0.3 mm 2 mps 730 mmHg 73%
11:00 +16°C° 0.3 mm 2 mps 730 mmHg 69%
12:00 +16°C° 0.9 mm 2 mps 730 mmHg 69%
13:00 +16°C° 0.9 mm 2 mps 729 mmHg 70%
14:00 +16°C° 0.9 mm 2 mps 729 mmHg 71%
15:00 +14°C° 2.3 mm 3 mps 729 mmHg 78%
16:00 +13°C° 2.3 mm 3 mps 729 mmHg 84%
17:00 +12°C° 2.3 mm 3 mps 729 mmHg 91%
18:00 +11°C° 3.9 mm 3 mps 729 mmHg 92%
19:00 +11°C° 3.9 mm 3 mps 730 mmHg 94%
20:00 +10°C° 3.9 mm 3 mps 730 mmHg 95%
21:00 +10°C° 2.1 mm 3 mps 730 mmHg 95%
22:00 +10°C° 2.1 mm 3 mps 731 mmHg 95%
23:00 +10°C° 2.1 mm 3 mps 731 mmHg 95%

21 May, Friday

Time Temperature Precipitation Wind Pressure Humidity
00:00 +9°C° 0.2 mm 3 mps 731 mmHg 95%
01:00 +9°C° 0.2 mm 3 mps 731 mmHg 94%
02:00 +8°C° 0.2 mm 3 mps 732 mmHg 94%
03:00 +8°C° 0 mm 3 mps 732 mmHg 95%
04:00 +8°C° 0 mm 3 mps 732 mmHg 96%
05:00 +7°C° 0 mm 3 mps 733 mmHg 96%
06:00 +7°C° 0 mm 4 mps 733 mmHg 92%
07:00 +8°C° 0 mm 5 mps 734 mmHg 88%
08:00 +9°C° 0 mm 5 mps 734 mmHg 84%
09:00 +10°C° 0 mm 5 mps 735 mmHg 79%
10:00 +13°C° 0 mm 5 mps 735 mmHg 74%
11:00 +14°C° 0 mm 5 mps 735 mmHg 70%
12:00 +14°C° 0.1 mm 5 mps 735 mmHg 66%
13:00 +14°C° 0.1 mm 5 mps 735 mmHg 62%
14:00 +15°C° 0.1 mm 5 mps 735 mmHg 58%
15:00 +14°C° 0 mm 5 mps 736 mmHg 60%
16:00 +14°C° 0 mm 5 mps 736 mmHg 61%
17:00 +14°C° 0 mm 4 mps 736 mmHg 63%
18:00 +12°C° 0 mm 4 mps 736 mmHg 68%
19:00 +11°C° 0 mm 3 mps 736 mmHg 72%
20:00 +9°C° 0 mm 2 mps 736 mmHg 77%
21:00 +9°C° 0 mm 2 mps 736 mmHg 77%
22:00 +8°C° 0 mm 2 mps 736 mmHg 78%
23:00 +8°C° 0 mm 1 mps 736 mmHg 78%

22 May, Saturday

Time Temperature Precipitation Wind Pressure Humidity
00:00 +7°C° 0 mm 2 mps 736 mmHg 80%
01:00 +6°C° 0 mm 2 mps 736 mmHg 82%
02:00 +6°C° 0 mm 2 mps 736 mmHg 83%
03:00 +7°C° 0 mm 1 mps 736 mmHg 83%
04:00 +7°C° 0 mm 1 mps 736 mmHg 82%
05:00 +6°C° 0 mm 0 mps 736 mmHg 82%
06:00 +9°C° 0 mm 1 mps 736 mmHg 76%
07:00 +11°C° 0 mm 1 mps 736 mmHg 71%
08:00 +13°C° 0 mm 1 mps 736 mmHg 65%
09:00 +14°C° 0 mm 1 mps 736 mmHg 61%
10:00 +15°C° 0 mm 1 mps 736 mmHg 57%
11:00 +16°C° 0 mm 1 mps 736 mmHg 53%
12:00 +18°C° 0 mm 1 mps 736 mmHg 52%
13:00 +19°C° 0 mm 1 mps 736 mmHg 50%
14:00 +19°C° 0 mm 1 mps 735 mmHg 49%
15:00 +18°C° 0 mm 2 mps 735 mmHg 51%
16:00 +18°C° 0 mm 2 mps 735 mmHg 53%
17:00 +18°C° 0 mm 2 mps 735 mmHg 54%
18:00 +16°C° 0 mm 2 mps 735 mmHg 62%
19:00 +15°C° 0 mm 2 mps 735 mmHg 69%
20:00 +13°C° 0 mm 2 mps 734 mmHg 76%
21:00 +12°C° 0 mm 2 mps 735 mmHg 79%
22:00 +10°C° 0 mm 2 mps 735 mmHg 81%
23:00 +10°C° 0 mm 3 mps 735 mmHg 83%

23 May, Sunday

Time Temperature Precipitation Wind Pressure Humidity
00:00 +9°C° 0 mm 3 mps 735 mmHg 86%
01:00 +9°C° 0 mm 3 mps 735 mmHg 88%
02:00 +9°C° 0 mm 3 mps 734 mmHg 91%
03:00 +9°C° 0 mm 3 mps 734 mmHg 91%
04:00 +9°C° 0 mm 3 mps 734 mmHg 92%
05:00 +9°C° 0 mm 3 mps 734 mmHg 93%
06:00 +11°C° 0 mm 3 mps 734 mmHg 88%
07:00 +12°C° 0 mm 3 mps 734 mmHg 82%
08:00 +14°C° 0 mm 3 mps 734 mmHg 77%
09:00 +16°C° 0 mm 3 mps 734 mmHg 72%
10:00 +18°C° 0 mm 3 mps 734 mmHg 67%
11:00 +19°C° 0 mm 3 mps 734 mmHg 62%
12:00 +19°C° 0 mm 2 mps 734 mmHg 60%
13:00 +21°C° 0 mm 1 mps 734 mmHg 59%
14:00 +21°C° 0 mm 1 mps 734 mmHg 57%
15:00 +21°C° 0 mm 1 mps 734 mmHg 57%
16:00 +19°C° 0 mm 0 mps 733 mmHg 57%
17:00 +19°C° 0 mm 0 mps 733 mmHg 57%
18:00 +20°C° 0 mm 1 mps 733 mmHg 64%
19:00 +18°C° 0 mm 1 mps 733 mmHg 70%
20:00 +16°C° 0 mm 2 mps 733 mmHg 77%
21:00 +15°C° 0 mm 1 mps 734 mmHg 79%
22:00 +15°C° 0 mm 1 mps 734 mmHg 81%
23:00 +14°C° 0 mm 1 mps 734 mmHg 83%
Show more

We Need Your Consent

Meteoprog and our Service Providers may store and access personal data such as cookies, device identifiers or other similar technologies on your device and process such data to personalise content and ads, as well as provide social media features and to analyse the traffic.

  • Store and/or access information on your device

    Cookies, device identifiers or other information can be stored or accessed on your device for the purposes indicated above.

  • Personalised ads and content, ad and content measurement, audience insights, and products development

    Ads and content can be personalised based on a profile. More data can be added to better personalise ads and content. Ad and content performance can be measured. Insights about the audience who saw the ads and content can be derived. Such data can be used to develop or improve user’s experience, systems and software.

By clicking ‘I Agree’ you will allow the use of indicated cookies, device identifiers, web beacons or other similar technologies. Your settings can be changed in the browser on your device.

For certain purposes, legitimate interests may be relied on, rather than consent. You can read more about this in our Privacy and Cookie Policy.